Showing default

BRO-14, 60551

Orbit data source: Space-Track

BRO-14, 60551 is a payload satellite owned by Unseen Labs (FR) in SSO that was launched on Fri, 16 Aug 2024 UTC via an FALCON 9 launch vehicle from the Air Force Western Test Range (AFWTR). Payload-class satellites include a variety of spacecraft equipped with specific instruments for various scientific and technological missions. These include communications satellites like Starlink; space stations such as the ISS; scientific satellites like the Hubble; Earth observation satellites from companies like Planet Labs, Umbra, and HawkEye 360; GPS; miniature CubeSats for education and research; and military/defense satellites.

Loading next visibility...
Identifier
60551, 2024-149CM
Orbit
SSO
Country
Flag of FRFR
Related business
Manufacturer
GOMSpace
Mission
Operational Commercial Sigint
Bus & Motor
CUBESAT 8U, Unknown motor
Mass
15 kg wet, ~15 kg dry
Launch date (UTC)
2024-08-16 (1 year ago)
Launch vehicle
FALCON 9
Launch site
Air Force Western Test Range (AFWTR)
Object type
Payload
Rocket body
Debris
Shape & HBR
Box, 0.2 m
Radar Cross Section
0.100 m², Medium (>0.1 m² and < 1m²)

Expand to show TLE details & history
Last TLE update: 7 hours ago

TLE from 7 hours ago
0 BRO-14
1 60551U 24149CM  25291.17041431  .00002862  00000-0  26492-3 0  9991
2 60551  97.7132   6.1102 0006869 173.6884 186.4424 14.95284323 63812
Epoch: 2025-10-18T04:05Z
TLE epoch observation values (Epoch: 2025-10-18T04:05:23.796Z)
Latitude
-0.00007°
Longitude
-82.14421°
Altitude
589.29 km
Speed
7.563 km/s
True Right ascension
00h 24m 26s
True Declination
0° 00' 00"
Sunlit
Object was in full shadow at epoch
Visualization orbit readout
Latitude
Unknown
Longitude
Unknown
Altitude
Unknown
Speed
Unknown
Apparent Right ascension
Unknown
Apparent Declination
Unknown
Sunlit
N/A
Visualization observer readout
Local Sidereal Time
05:49:37
Azimuth
Unknown
Elevation
Unknown
Doppler factor
Unknown
Orbital elements
Apogee altitude
583.281 km
Perigee altitude
573.724 km
Semi-major axis
6,956.64 km
Eccentricity
0.00069
Inclination
97.7132°
RAAN
6.1102°
Arg. of periapsis
173.6884°
True anomaly
186.43358°
Mean anomaly
186.4424°
Eccentric anomaly
186.43799°
Mean motion
3.74062 °/min
Orbital period
96.24 mins
BSTAR
0.00026492
Loading maneuver chart data...
Computing Atmospheric mass density...
Loading historical data...
Loading historical data...
Loading historical data...
Loading historical data...
Loading historical data...
Loading historical data...
Loading historical data...

Documentation

Showing up to 5 results
|